Weather History for Imperial, CA

Change the Weather History Date:

Thursday, September 19, 2013

  Actual Average Record
Temperature  
Mean Temperature 85 °F -  
Max Temperature 102 °F 97 °F 110 °F (1949)
Min Temperature 70 °F 70 °F 59 °F (1985)
Cooling Degree Days 20    
Growing Degree Days 35 (Base 50)    
Moisture  
Dew Point 45 °F    
Average Humidity 26    
Maximum Humidity 44    
Minimum Humidity 12    
Precipitation  
Precipitation 0.00 in - - ()
Sea Level Pressure  
Sea Level Pressure 29.66 in    
Wind  
Wind Speed 2 mph (WSW)    
Max Wind Speed 6 mph    
Max Gust Speed -    
Visibility 10 miles    
Events      
Averages and records for this station are not official NWS values.
T = Trace of Precipitation, MM = Missing Value Source: NWS Daily Summary

Daily Weather History Graph

Daily Weather History Graph

Search for Another Location

Airport:

Trip Planner

Search our weather history database for the weather conditions in past years. The results will help you decide how hot, cold, wet, or windy it might be!

Date:

Astronomy

Sep. 19, 2013 Rise Set
Actual Time 6:28 AM PDT 6:42 PM PDT
Civil Twilight 6:04 AM PDT 7:07 PM PDT
Nautical Twilight 5:35 AM PDT 7:36 PM PDT
Astronomical Twilight 5:06 AM PDT 8:05 PM PDT
Moon 6:48 PM PDT (9/19) 6:39 AM PDT (9/19)
Length of Visible Light 13h 03m
Length of Day
12h 13m
Full, 100% of the Moon is Illuminated
Sep 19
Full
Sep 26
Last Quarter
Oct 4
New
Oct 11
First Quarter
Oct 18
Full

Hourly Weather History & Observations

Time (PDT) Temp. Dew Point Humidity Pressure Visibility Wind Dir Wind Speed Gust Speed Precip Events Conditions
12:53 AM 75.9 °F 48.0 °F 37% 29.63 in 10.0 mi West 3.5 mph - N/A   Clear
1:53 AM 75.0 °F 48.0 °F 38% 29.64 in 10.0 mi Calm Calm - N/A   Clear
2:53 AM 73.0 °F 46.0 °F 38% 29.63 in 10.0 mi SSW 3.5 mph - N/A   Clear
3:53 AM 73.0 °F 45.0 °F 37% 29.63 in 10.0 mi Calm Calm - N/A   Clear
4:53 AM 71.1 °F 46.9 °F 42% 29.64 in 10.0 mi SW 4.6 mph - N/A   Clear
5:53 AM 70.0 °F 46.9 °F 44% 29.66 in 10.0 mi Calm Calm - N/A   Clear
6:53 AM 71.1 °F 46.0 °F 41% 29.68 in 10.0 mi Calm Calm - N/A   Clear
7:53 AM 78.1 °F 46.0 °F 32% 29.70 in 10.0 mi Calm Calm - N/A   Clear
8:53 AM 82.9 °F 46.0 °F 27% 29.70 in 10.0 mi West 3.5 mph - N/A   Clear
9:53 AM 87.1 °F 50.0 °F 28% 29.72 in 10.0 mi NW 3.5 mph - N/A   Clear
10:53 AM 90.0 °F 46.0 °F 22% 29.72 in 10.0 mi WSW 3.5 mph - N/A   Clear
11:53 AM 93.9 °F 42.1 °F 17% 29.70 in 10.0 mi Calm Calm - N/A   Clear
12:53 PM 98.1 °F 37.9 °F 12% 29.70 in 10.0 mi NE 5.8 mph - N/A   Clear
1:53 PM 99.0 °F 37.9 °F 12% 29.67 in 10.0 mi Calm Calm - N/A   Clear
2:53 PM 100.9 °F 39.9 °F 12% 29.65 in 10.0 mi Calm Calm - N/A   Clear
3:53 PM 100.9 °F 39.0 °F 12% 29.63 in 10.0 mi Calm Calm - N/A   Clear
4:53 PM 99.0 °F 39.0 °F 13% 29.62 in 10.0 mi Calm Calm - N/A   Clear
5:53 PM 98.1 °F 45.0 °F 16% 29.61 in 10.0 mi West 3.5 mph - N/A   Clear
6:53 PM 93.0 °F 45.0 °F 19% 29.62 in 10.0 mi West 3.5 mph - N/A   Clear
7:53 PM 86.0 °F 46.0 °F 25% 29.63 in 10.0 mi West 3.5 mph - N/A   Clear
8:53 PM 86.0 °F 44.1 °F 23% 29.65 in 10.0 mi Calm Calm - N/A   Clear
9:53 PM 82.9 °F 45.0 °F 26% 29.66 in 10.0 mi Calm Calm - N/A   Clear
10:53 PM 82.9 °F 45.0 °F 26% 29.67 in 10.0 mi Calm Calm - N/A   Clear
11:53 PM 79.0 °F 48.9 °F 35% 29.67 in 10.0 mi Calm Calm - N/A   Clear